Wind_Speed
33 31 31 28 27 27 28 28 27 24 22 21 19 18 17 14 13 10 8 7 7 8 8 8 8 9 10 10 11 12 11 11 11 12 14 15 16 17 18 19 20 21 22 23 24 24 24 24 23 23 23 23 23 24 26 28 29 31 32 32 31 29 29
36 33 32 29 27 28 28 27 28 26 23 22 21 20 19 17 15 12 10 8 8 9 10 9 8 8 8 9 9 10 10 10 9 9 10 12 14 15 16 17 18 18 19 20 22 23 24 24 24 24 24 23 23 23 24 25 27 29 30 31 30 28 26
38 35 32 29 28 28 27 26 28 28 26 24 23 22 21 20 18 15 12 10 9 10 11 11 10 10 9 9 8 9 9 10 9 8 8 9 11 12 13 14 16 16 17 18 19 20 21 22 23 24 24 24 23 23 22 23 24 26 27 29 29 28 26
39 36 34 30 29 28 28 28 29 31 30 26 24 24 23 22 20 18 15 13 11 11 12 12 12 12 12 10 9 9 8 9 9 9 8 7 8 9 10 11 13 14 15 15 16 17 18 19 21 22 22 23 23 23 22 22 23 23 24 26 27 27 26
39 37 36 32 30 29 29 30 31 33 33 29 25 25 25 23 22 21 18 15 13 13 14 14 14 14 14 14 12 11 9 8 9 9 9 8 7 7 8 9 10 11 12 13 14 14 15 16 17 19 20 21 22 22 22 22 22 22 22 22 23 25 24
40 38 38 36 33 30 29 30 31 32 33 31 28 27 27 26 24 22 20 17 16 16 16 16 16 16 16 16 15 14 12 10 9 9 9 9 9 7 6 7 8 8 9 10 11 12 13 14 15 16 17 18 19 20 21 22 22 21 21 20 20 21 21
42 39 38 37 35 33 30 30 30 30 31 31 30 30 30 30 27 24 20 19 19 19 19 19 19 18 18 18 18 17 16 14 12 11 10 10 10 9 7 7 7 7 7 7 9 10 11 12 13 13 14 15 16 17 19 20 20 20 20 19 18 18 18
44 39 37 36 36 35 34 32 30 30 31 32 32 32 31 32 31 28 23 21 22 23 23 23 22 21 20 19 19 20 19 18 16 15 13 12 12 11 10 9 8 8 7 6 7 7 9 10 11 12 13 13 14 14 16 17 18 18 19 18 18 16 15
45 40 36 35 35 33 33 32 30 30 31 31 32 31 32 34 35 32 28 25 25 26 27 26 25 25 23 22 22 22 22 22 21 20 18 15 14 13 12 11 10 10 8 8 7 7 6 7 9 10 11 11 12 12 13 14 14 15 16 17 17 16 15
46 40 35 33 33 32 31 31 30 30 30 30 30 31 33 36 38 35 32 29 27 28 30 29 28 27 26 25 25 24 24 25 25 23 21 19 17 16 15 14 13 12 11 10 9 9 8 7 7 8 9 10 11 11 11 11 12 12 13 14 14 14 14
47 42 36 33 32 33 32 32 32 32 32 31 32 33 35 38 40 38 35 32 29 30 31 31 30 29 28 28 28 27 26 26 27 27 24 23 21 19 17 16 15 15 15 14 12 11 10 9 8 8 8 9 10 11 11 10 10 10 10 10 11 11 11
48 44 40 37 36 35 35 36 38 38 37 36 36 38 40 41 41 40 38 34 32 32 32 32 32 31 29 29 29 30 29 28 29 28 26 25 23 21 19 17 16 16 16 16 15 13 12 11 11 10 10 10 10 11 11 11 9 9 8 7 7 8 7
51 47 44 43 41 40 40 41 43 43 40 37 37 39 41 41 40 40 39 38 36 35 34 34 35 35 33 32 32 33 33 32 31 29 28 27 25 23 21 19 18 17 17 17 16 15 14 13 12 12 11 12 12 11 11 12 11 9 8 7 6 6 5
55 51 47 45 43 42 43 43 43 42 40 37 35 36 36 36 37 38 38 39 40 39 38 38 38 39 39 37 36 35 36 36 34 31 31 30 28 26 24 21 19 19 19 19 18 17 17 15 14 13 13 14 14 13 12 12 12 11 10 9 8 7 6
58 56 53 50 46 44 45 45 41 40 41 37 33 32 32 32 33 36 39 40 41 41 41 41 42 45 46 43 41 39 38 39 38 34 33 32 30 27 25 22 22 21 21 21 21 20 20 19 18 16 16 16 17 16 15 14 13 13 13 12 9 9 9
59 59 58 56 52 48 47 46 43 40 40 38 33 31 33 33 34 35 37 40 41 40 38 38 43 49 50 47 45 42 40 42 42 38 35 34 34 32 29 27 25 24 24 24 24 24 24 24 23 21 20 20 20 19 19 18 17 17 16 15 13 11 11
58 61 62 60 55 51 49 47 44 42 40 39 38 38 37 36 36 37 38 39 41 41 40 41 45 49 50 50 50 47 44 44 44 41 38 38 38 39 38 35 32 29 26 26 27 27 28 29 28 26 25 24 23 22 22 22 22 21 19 19 18 17 15
59 60 63 63 58 53 51 49 45 43 41 39 41 45 44 41 40 42 42 41 41 43 45 48 50 51 50 49 49 48 46 46 46 44 42 42 42 43 43 41 38 35 30 28 29 30 30 31 30 29 28 27 26 25 25 25 25 24 23 22 21 21 19
61 60 62 63 61 55 52 50 49 48 46 42 40 43 44 43 44 44 44 43 43 43 46 48 51 53 52 50 48 45 43 44 45 44 44 45 47 48 47 45 43 40 36 33 33 33 33 33 32 32 31 30 29 27 27 27 27 26 25 24 23 24 24
64 63 61 59 60 59 56 52 50 52 53 48 43 41 41 42 46 46 45 45 45 45 46 47 48 48 50 52 53 49 44 42 42 43 45 47 49 50 49 48 47 44 41 38 37 36 36 36 36 35 34 33 31 31 29 27 26 26 26 25 24 26 27
68 67 66 61 57 59 60 58 54 52 54 52 45 40 38 39 44 47 46 44 45 49 50 48 45 44 44 47 53 55 52 48 46 46 49 51 52 52 51 50 49 48 46 43 41 40 39 39 39 38 38 36 35 34 32 29 27 27 27 26 27 28 29
72 70 72 69 61 56 56 60 59 54 52 52 49 44 42 41 42 44 44 42 43 48 51 50 47 48 49 48 49 52 52 49 49 49 48 50 51 52 53 54 54 53 52 48 46 45 43 42 42 41 42 41 40 38 36 32 30 29 29 29 30 31 31
78 75 74 74 71 64 56 55 60 61 55 52 52 49 47 47 45 43 44 47 50 50 50 50 47 47 53 57 55 53 51 48 47 47 48 51 53 52 53 56 57 58 57 53 50 50 47 45 44 45 45 45 44 42 39 36 35 34 34 33 33 33 33
83 80 77 75 74 73 68 61 61 65 63 58 55 53 51 51 50 48 48 51 54 52 47 46 45 46 54 61 60 58 58 55 52 50 51 55 58 58 60 64 65 63 61 58 54 52 50 47 45 47 49 48 46 44 42 39 38 38 38 38 37 37 37
85 84 81 77 73 70 70 68 67 68 68 63 57 54 54 55 54 54 52 50 52 53 49 47 49 52 57 60 61 61 62 60 57 55 53 52 55 59 61 65 67 65 61 59 56 53 50 47 45 48 50 49 45 44 43 41 41 41 41 41 41 40 41
84 86 84 83 79 71 67 68 68 69 70 67 62 57 56 56 56 58 59 57 57 59 57 56 59 62 62 63 62 63 64 65 63 61 58 54 54 57 59 60 64 65 62 59 56 51 47 45 46 49 50 47 43 41 41 41 41 42 43 43 43 44 45
82 85 86 87 87 83 77 74 71 69 69 70 69 67 65 64 63 62 63 65 66 65 65 66 68 69 69 70 69 66 68 71 72 70 67 60 56 60 62 62 64 67 65 61 56 51 47 46 48 50 51 50 48 47 47 45 42 40 40 41 43 46 48
83 83 84 87 89 89 88 85 80 77 75 73 74 77 78 77 75 70 69 72 74 73 74 75 75 74 73 74 74 72 71 74 76 75 73 66 58 60 65 65 64 67 68 66 62 58 56 54 54 54 54 53 52 52 52 51 48 45 42 41 43 47 50
84 84 84 85 87 89 88 87 85 85 85 82 81 84 86 84 82 80 77 75 77 79 82 83 83 82 79 77 78 77 75 76 76 76 76 71 62 60 64 65 64 65 68 68 67 64 62 61 60 59 59 57 56 54 54 53 53 54 53 52 52 53 54
81 84 85 84 85 88 89 88 87 88 89 88 88 90 90 87 86 86 84 80 76 77 81 85 87 88 86 84 83 82 80 79 78 76 76 75 69 64 64 67 67 66 65 65 65 64 64 64 63 62 61 60 60 60 60 59 59 60 61 61 61 59 58
82 85 86 83 83 86 89 90 91 91 91 90 90 92 93 92 90 89 88 84 80 76 77 80 84 86 87 87 87 87 85 83 81 80 78 78 76 70 67 68 70 70 68 67 66 64 63 62 63 63 63 63 63 63 64 64 64 63 64 64 64 63 61
85 87 88 86 83 82 86 91 95 96 95 93 93 92 94 97 97 95 91 88 84 80 78 79 80 83 85 86 88 88 87 84 84 83 82 81 79 75 72 71 72 72 71 71 70 69 66 63 62 62 62 64 65 65 66 66 66 66 66 66 67 67 65
87 90 92 92 88 84 85 90 96 99 99 97 95 94 94 96 100 102 100 95 89 84 81 80 80 81 83 85 87 88 87 86 85 84 84 83 82 79 75 74 74 74 74 74 74 73 72 70 67 65 64 65 66 67 68 68 68 69 69 68 69 70 69
88 91 93 95 94 91 89 90 95 101 103 102 100 98 97 97 99 103 105 101 96 91 87 84 82 82 82 82 84 87 88 88 87 85 84 84 84 83 81 79 77 77 78 77 77 76 75 74 73 72 70 69 69 70 71 71 71 71 72 71 70 71 71
91 92 94 96 97 96 95 95 96 100 104 106 105 103 101 100 100 103 105 103 98 95 93 90 88 88 87 85 85 85 87 88 89 88 86 84 84 84 84 83 83 82 82 82 81 81 79 78 76 75 74 73 73 73 74 74 74 73 73 72 72 72 72
94 95 96 97 98 99 99 99 100 101 104 106 107 107 106 106 104 104 106 104 100 98 97 95 93 93 94 93 92 90 89 89 90 91 90 88 87 86 86 86 85 86 87 87 87 86 85 84 83 81 80 79 78 77 76 77 78 77 76 74 73 73 73
95 96 97 98 100 101 101 101 102 104 105 108 109 110 110 111 110 109 109 109 107 104 103 101 98 97 97 97 98 97 96 95 94 94 94 93 92 93 93 92 90 89 90 91 92 92 91 91 90 89 88 87 86 84 83 82 82 82 82 80 78 76 75
101 99 99 99 101 103 104 104 104 105 107 109 111 112 113 114 115 114 113 114 114 113 112 110 108 106 104 103 102 102 102 102 101 101 100 100 99 100 100 100 99 97 96 97 97 97 97 98 98 98 97 96 95 94 93 92 90 89 89 88 87 85 82
Wind_Direction
220 217 215 213 208 206 209 214 219 219 216 216 220 226 229 235 243 248 260 279 298 313 324 337 347 354 2 8 10 10 11 16 28 40 49 53 54 54 52 50 48 45 45 45 44 44 43 43 42 41 40 40 43 46 49 52 53 55 58 59 62 66 71
224 216 210 211 211 207 206 213 221 223 220 217 219 225 229 233 238 241 249 263 280 295 306 316 326 334 344 352 359 3 4 5 10 21 33 42 48 52 53 52 50 46 44 44 44 44 43 43 43 43 42 42 43 44 46 49 52 54 57 59 61 64 70
224 214 206 208 212 210 208 212 223 227 224 221 220 224 228 231 236 240 243 252 265 278 291 303 310 315 324 332 339 348 355 355 356 1 11 23 32 39 48 52 51 47 44 43 43 43 43 43 44 44 43 44 45 46 46 47 49 52 56 58 60 62 65
222 215 209 208 211 213 211 213 223 229 228 227 226 226 228 230 235 239 242 245 254 265 278 290 298 303 308 313 320 326 334 342 344 345 348 356 8 19 32 44 49 48 45 42 41 43 43 42 42 43 44 45 46 47 48 48 47 48 52 57 61 63 65
218 219 218 215 213 215 216 215 221 227 229 230 233 233 230 230 232 238 242 244 251 260 269 278 287 293 298 301 306 311 313 318 325 330 333 333 338 352 7 23 36 43 44 43 41 42 42 41 40 41 42 43 45 47 49 50 49 48 49 52 57 63 68
218 220 221 221 217 215 218 219 221 226 227 229 236 238 235 233 232 236 241 246 250 257 262 267 273 280 288 293 296 300 301 299 299 306 314 317 316 319 329 349 10 25 35 39 40 40 40 40 39 39 39 40 42 44 47 50 52 51 50 49 51 57 65
219 216 216 220 218 217 220 221 221 223 225 229 234 237 236 235 233 233 239 248 254 256 256 258 263 270 276 282 288 291 294 293 287 286 291 298 302 302 302 312 332 354 12 25 33 36 36 37 37 38 38 37 37 40 43 46 49 52 53 52 50 51 55
217 211 212 217 219 220 222 222 222 223 225 230 235 238 239 237 235 234 236 243 251 253 254 254 258 264 270 275 280 284 286 287 286 281 277 279 285 289 289 291 301 319 336 353 10 24 31 32 33 35 35 35 34 35 38 41 45 49 53 55 54 52 50
215 210 211 215 219 223 225 226 227 227 228 232 237 242 243 238 236 237 234 234 242 249 252 253 256 261 266 270 273 277 281 283 285 282 274 268 270 275 278 282 286 295 309 324 339 352 7 20 25 26 27 27 29 31 34 37 39 44 49 53 56 56 54
212 210 209 213 219 223 226 231 233 233 235 237 240 243 243 239 237 237 236 233 237 246 251 252 254 258 263 268 269 272 276 279 283 284 275 265 264 266 267 272 278 285 294 304 316 325 332 347 2 11 13 15 17 20 25 31 33 38 45 49 54 57 57
211 209 206 210 219 223 227 232 235 237 241 243 244 243 242 241 238 235 237 239 240 245 249 251 252 254 259 264 265 266 268 272 278 282 275 263 260 262 263 266 273 280 286 292 298 305 311 320 329 339 348 356 3 7 11 16 20 27 35 41 47 53 59
210 207 201 204 212 215 218 224 228 231 235 237 238 238 238 241 240 236 237 243 247 248 248 251 252 252 255 259 261 262 263 265 270 275 273 262 256 258 259 261 268 274 280 283 287 291 295 300 308 316 322 329 341 351 356 357 1 8 16 25 34 39 46
211 207 202 203 207 208 209 215 220 223 226 231 234 235 237 241 244 242 243 249 255 254 252 254 255 254 254 254 257 259 260 261 263 268 271 265 255 254 256 257 262 268 273 277 278 281 283 285 290 295 303 310 318 328 336 340 340 342 349 356 4 10 18
215 212 207 205 208 210 211 214 219 222 225 232 236 234 237 244 247 248 251 256 259 256 255 256 255 255 254 254 255 257 258 259 258 262 267 264 255 254 255 255 260 265 268 272 275 276 279 280 281 283 288 296 302 306 312 319 323 322 324 331 338 338 337
217 215 212 209 209 211 213 216 219 221 224 232 236 234 237 241 240 241 246 251 254 255 256 256 255 256 256 255 253 254 255 256 255 258 261 257 253 254 257 258 263 266 266 267 270 272 274 275 277 280 287 294 297 298 297 298 302 305 307 310 315 319 316
218 216 214 213 211 211 214 217 219 220 222 227 229 230 232 234 232 234 239 243 244 246 249 251 252 254 255 255 254 253 254 254 254 254 254 252 251 253 257 261 264 267 268 268 268 269 271 272 275 280 286 292 295 294 290 287 287 292 296 297 298 302 305
217 216 216 216 215 213 212 216 219 221 224 225 221 219 222 228 231 233 237 241 240 238 239 242 246 250 252 254 255 253 252 254 255 254 251 250 252 255 258 261 262 262 266 269 269 270 271 273 275 279 283 287 290 288 284 282 281 284 288 290 291 292 295
214 215 216 217 218 216 214 215 216 217 221 223 218 216 218 223 229 232 236 240 241 240 239 240 244 250 252 251 251 250 250 251 254 253 250 248 250 254 258 261 262 261 263 268 270 269 271 272 273 275 278 282 284 285 284 281 277 278 281 283 285 286 286
212 213 216 218 220 218 216 217 217 216 219 223 223 222 223 225 228 233 237 239 240 241 242 241 245 252 254 252 249 249 249 248 247 246 247 247 248 251 254 257 259 260 260 266 269 267 268 270 269 270 273 276 278 281 284 283 279 276 277 279 281 282 283
214 215 216 219 221 219 216 217 220 219 220 224 226 229 234 234 233 235 238 238 238 239 242 244 247 251 253 251 249 247 245 243 241 241 243 246 249 251 252 253 257 258 258 262 267 266 266 268 268 269 271 272 274 276 278 280 280 278 278 279 280 282 283
217 217 216 217 219 218 216 217 219 220 221 223 223 227 234 237 237 238 238 237 237 237 238 242 246 245 244 245 245 244 242 241 242 243 243 245 249 251 252 253 255 256 256 258 263 265 265 266 267 269 270 271 272 273 273 273 274 275 275 275 278 280 282
218 219 218 216 215 216 217 218 218 217 219 221 221 222 226 232 237 237 233 232 234 234 235 239 242 242 240 240 240 241 241 241 243 246 245 245 247 250 253 255 255 253 253 255 260 264 265 265 266 267 268 269 270 272 272 270 267 267 268 269 271 274 277
218 219 220 219 217 218 221 224 222 219 218 220 222 224 228 234 237 232 226 226 229 231 234 237 239 241 241 240 239 239 240 240 242 246 247 246 245 246 248 252 253 252 252 253 256 261 264 265 265 265 266 266 267 270 270 268 264 261 261 262 265 267 271
218 220 221 221 220 220 223 226 226 223 221 222 225 227 230 233 231 225 221 225 228 230 232 230 229 232 236 238 238 240 241 242 243 247 251 252 251 250 249 250 252 253 253 251 252 256 262 265 264 265 266 266 267 268 269 268 266 262 259 258 259 261 263
218 219 220 220 219 219 221 224 227 227 224 222 225 228 226 225 224 221 218 219 221 221 220 218 220 225 230 232 233 235 239 243 244 244 246 249 250 250 249 249 250 250 250 249 249 253 259 262 262 261 262 263 266 268 268 268 268 266 262 260 259 259 260
219 219 219 220 219 217 218 221 225 227 225 220 220 221 220 217 217 216 215 217 219 218 217 218 223 227 229 231 232 232 234 238 240 238 238 240 243 245 245 246 247 247 247 247 247 250 254 257 258 257 257 256 257 259 262 265 267 266 264 263 263 263 263
218 218 219 221 221 220 220 222 224 226 226 223 222 223 222 219 218 216 217 220 223 224 225 226 229 231 231 232 233 233 232 234 236 237 236 238 242 244 245 246 246 245 246 246 245 246 247 250 253 255 255 254 251 252 256 259 261 260 260 261 262 263 264
217 217 218 220 222 222 223 225 226 227 227 225 224 224 225 224 223 222 222 224 226 228 230 232 234 236 235 233 233 234 234 235 236 237 237 238 240 242 244 246 246 244 244 245 245 245 245 247 249 252 254 253 251 252 254 254 253 252 253 255 257 260 263
218 218 217 219 222 222 223 223 224 227 229 227 224 223 224 224 225 226 228 229 230 231 232 234 236 238 238 238 236 235 237 238 238 238 237 236 238 241 242 243 244 244 244 245 247 248 248 248 248 249 251 252 251 250 251 251 250 249 250 252 255 258 260
219 218 217 219 222 223 223 221 221 224 227 228 226 226 226 225 226 228 231 232 233 233 233 234 235 237 238 239 238 237 238 239 238 238 237 235 236 241 242 242 242 244 245 247 249 251 252 252 251 250 250 251 252 250 250 251 252 251 252 253 256 258 259
219 219 218 218 221 223 223 222 220 221 223 225 226 226 226 226 227 229 231 233 234 234 232 231 232 234 235 236 237 238 238 238 237 237 236 235 236 240 243 241 240 241 243 245 247 249 250 250 251 251 251 251 252 252 251 252 253 254 254 255 257 258 258
221 221 220 219 220 222 222 221 220 221 222 222 223 224 225 226 228 229 230 231 233 233 231 229 229 229 231 233 235 236 237 236 236 236 237 237 237 239 241 240 239 238 240 242 244 245 244 244 247 249 250 251 252 253 253 254 254 255 255 256 257 257 257
220 221 222 221 221 221 221 221 220 221 222 222 223 224 225 226 227 230 231 232 232 232 230 229 228 228 229 231 234 235 236 235 235 236 237 238 238 238 239 239 239 239 240 241 242 243 241 241 243 247 250 252 252 252 253 255 255 255 256 256 257 258 258
221 221 222 223 222 223 224 223 222 222 223 224 225 226 226 226 227 229 231 232 231 231 230 229 229 228 229 230 232 233 234 234 235 235 236 238 239 238 238 239 240 240 240 241 242 242 241 241 242 244 247 251 252 252 252 253 255 254 254 255 256 257 258
222 222 223 224 224 225 226 226 225 224 225 226 227 228 228 228 228 228 230 231 231 230 230 230 230 231 231 231 231 232 232 233 233 234 235 237 238 238 238 239 240 241 242 241 241 241 241 242 243 244 245 247 250 252 252 252 252 253 252 252 253 254 255
223 224 225 225 225 226 228 228 228 228 228 229 230 230 231 231 231 230 230 231 231 230 230 231 232 233 234 234 234 234 233 233 233 233 235 236 238 239 239 239 239 241 242 243 243 243 243 244 245 246 246 247 249 252 253 252 251 251 251 252 252 251 252
225 225 226 227 227 227 229 230 231 231 232 232 232 233 233 233 234 233 233 233 233 233 232 233 234 235 236 237 237 238 237 236 235 235 235 237 239 241 243 243 242 242 243 245 246 248 248 249 249 249 250 250 251 252 254 255 254 252 251 251 251 250 250
228 228 228 228 229 229 230 232 233 234 234 234 235 235 236 236 236 236 236 236 236 237 237 237 238 238 238 239 239 240 240 240 239 238 239 240 241 242 244 246 247 246 246 246 248 251 252 253 254 254 255 256 257 257 257 258 258 256 254 252 252 251 250
Height
10993 10995 10996 10998 11000 11003 11005 11007 11008 11010 11012 11014 11015 11016 11017 11018 11019 11020 11020 11021 11021 11021 11022 11022 11022 11022 11022 11022 11022 11022 11022 11023 11023 11022 11022 11021 11021 11020 11019 11018 11018 11017 11016 11015 11014 11012 11011 11010 11009 11008 11007 11006 11005 11004 11003 11002 11001 11000 10999 10997 10996 10994 10993
10990 10992 10994 10996 10998 11001 11003 11005 11007 11008 11010 11012 11014 11015 11016 11017 11018 11019 11019 11020 11021 11021 11021 11022 11022 11022 11022 11023 11023 11023 11023 11023 11023 11023 11023 11023 11022 11021 11021 11020 11019 11018 11017 11016 11015 11014 11013 11012 11011 11010 11009 11008 11007 11006 11005 11004 11003 11003 11002 11000 10999 10998 10997
10987 10990 10992 10994 10997 10999 11001 11003 11005 11006 11008 11010 11012 11013 11014 11016 11016 11017 11018 11019 11020 11021 11021 11021 11022 11022 11022 11023 11023 11023 11023 11023 11024 11024 11024 11024 11023 11023 11022 11021 11020 11020 11019 11018 11017 11016 11015 11014 11013 11012 11011 11011 11010 11009 11008 11007 11005 11005 11004 11003 11002 11001 11000
10984 10986 10989 10992 10995 10997 10999 11001 11003 11004 11006 11008 11010 11011 11012 11014 11015 11016 11017 11018 11019 11020 11020 11021 11021 11022 11022 11022 11023 11023 11023 11023 11024 11024 11024 11024 11024 11023 11023 11022 11022 11021 11020 11019 11019 11018 11017 11016 11015 11014 11014 11013 11012 11011 11010 11009 11008 11006 11006 11005 11004 11003 11002
10981 10983 10986 10989 10993 10995 10997 10999 11001 11002 11004 11006 11008 11009 11010 11012 11013 11014 11015 11017 11018 11019 11019 11020 11020 11021 11021 11022 11022 11023 11023 11023 11023 11023 11024 11024 11024 11024 11023 11023 11023 11022 11021 11021 11020 11019 11018 11018 11017 11016 11015 11015 11014 11013 11012 11011 11010 11009 11008 11007 11006 11006 11005
10978 10981 10984 10987 10990 10993 10995 10997 10999 11001 11002 11004 11006 11008 11009 11010 11011 11013 11014 11015 11016 11018 11019 11019 11019 11020 11020 11021 11022 11022 11023 11023 11023 11023 11023 11023 11023 11023 11023 11023 11023 11022 11022 11022 11021 11020 11020 11019 11018 11018 11017 11016 11016 11015 11013 11012 11012 11011 11010 11009 11008 11008 11007
10975 10979 10981 10984 10988 10991 10993 10995 10997 10999 11000 11002 11004 11005 11006 11008 11009 11011 11012 11014 11015 11016 11017 11017 11018 11018 11019 11020 11020 11021 11022 11022 11022 11022 11022 11022 11022 11022 11022 11022 11022 11022 11022 11022 11022 11021 11021 11020 11020 11019 11018 11018 11017 11016 11015 11014 11014 11013 11012 11011 11011 11010 11009
10973 10976 10979 10981 10984 10987 10990 10993 10995 10997 10998 10999 11000 11002 11004 11006 11007 11008 11010 11012 11013 11014 11015 11015 11016 11016 11017 11018 11019 11019 11020 11021 11021 11021 11021 11021 11021 11021 11021 11022 11022 11022 11022 11022 11022 11022 11021 11021 11020 11020 11019 11019 11018 11017 11017 11016 11015 11015 11015 11014 11013 11013 11012
10971 10974 10977 10979 10982 10985 10988 10991 10993 10994 10995 10996 10997 10998 11001 11003 11004 11005 11007 11009 11010 11011 11012 11013 11014 11014 11015 11016 11017 11017 11018 11018 11019 11020 11020 11020 11020 11020 11020 11020 11021 11021 11022 11022 11022 11022 11022 11021 11021 11020 11020 11020 11019 11019 11018 11017 11017 11017 11017 11016 11016 11015 11014
10969 10972 10975 10979 10982 10985 10988 10990 10991 10992 10992 10993 10993 10995 10997 10999 11001 11002 11004 11006 11007 11008 11009 11010 11011 11012 11012 11013 11014 11015 11016 11016 11016 11017 11018 11018 11019 11019 11019 11019 11020 11020 11021 11021 11021 11021 11022 11022 11021 11021 11020 11020 11020 11019 11019 11019 11018 11018 11018 11018 11017 11017 11016
10966 10969 10974 10979 10983 10985 10988 10989 10989 10990 10990 10990 10991 10992 10993 10995 10997 10999 11001 11003 11004 11005 11006 11007 11009 11009 11010 11010 11011 11012 11013 11013 11013 11014 11015 11016 11017 11017 11017 11017 11018 11019 11019 11020 11020 11021 11021 11021 11021 11021 11020 11020 11020 11020 11020 11019 11019 11019 11019 11019 11019 11018 11017
10959 10964 10970 10974 10976 10979 10983 10985 10984 10985 10987 10988 10988 10989 10990 10992 10994 10996 10998 10999 11001 11001 11002 11004 11005 11006 11007 11008 11008 11008 11009 11009 11010 11011 11012 11013 11014 11015 11015 11016 11016 11017 11018 11018 11019 11019 11020 11020 11020 11020 11020 11020 11020 11020 11020 11020 11020 11020 11020 11020 11019 11019 11018
10954 10960 10964 10967 10968 10971 10974 10975 10976 10979 10983 10985 10986 10987 10988 10990 10992 10995 10996 10997 10997 10998 10999 11000 11001 11002 11003 11004 11004 11004 11005 11005 11007 11009 11009 11010 11012 11013 11014 11014 11014 11015 11016 11017 11017 11017 11018 11018 11019 11019 11019 11019 11019 11020 11020 11020 11020 11020 11020 11020 11019 11019 11018
10950 10956 10961 10965 10967 10968 10969 10969 10972 10977 10980 10981 10983 10985 10987 10990 10992 10994 10995 10995 10994 10993 10994 10995 10996 10997 10997 10998 11000 11000 11001 11002 11003 11006 11007 11008 11009 11010 11011 11012 11012 11013 11014 11015 11015 11016 11016 11016 11016 11017 11017 11018 11018 11018 11019 11019 11019 11019 11019 11019 11019 11019 11018
10946 10952 10957 10960 10962 10964 10965 10967 10970 10974 10976 10977 10980 10983 10985 10987 10988 10990 10991 10990 10989 10989 10989 10991 10992 10991 10991 10992 10994 10996 10997 10998 11000 11002 11004 11005 11006 11007 11008 11010 11011 11012 11013 11013 11014 11014 11014 11014 11014 11015 11015 11016 11016 11016 11017 11017 11018 11018 11018 11018 11018 11018 11017
10943 10948 10950 10952 10954 10957 10960 10964 10967 10969 10970 10972 10975 10978 10980 10981 10981 10983 10984 10984 10984 10985 10986 10987 10986 10984 10984 10986 10988 10991 10992 10993 10995 10998 11000 11001 11003 11004 11006 11007 11008 11009 11011 11011 11012 11012 11012 11012 11012 11012 11013 11014 11015 11015 11014 11015 11015 11016 11016 11016 11016 11016 11016
10939 10943 10945 10946 10948 10952 10956 10960 10964 10967 10968 10969 10970 10972 10975 10975 10975 10976 10976 10976 10979 10981 10982 10982 10980 10978 10979 10981 10983 10985 10987 10988 10990 10994 10996 10998 10999 11001 11002 11004 11005 11007 11007 11008 11009 11009 11009 11009 11009 11010 11011 11012 11012 11013 11013 11012 11013 11013 11014 11014 11014 11014 11014
10932 10935 10937 10940 10943 10948 10953 10957 10960 10963 10965 10966 10968 10968 10969 10969 10969 10970 10971 10972 10975 10978 10978 10977 10976 10973 10974 10976 10977 10979 10982 10984 10986 10989 10991 10993 10995 10996 10998 11000 11001 11003 11004 11004 11006 11006 11006 11006 11007 11007 11007 11009 11009 11010 11010 11010 11010 11011 11011 11011 11011 11012 11011
10923 10927 10932 10936 10938 10943 10949 10953 10956 10959 10960 10961 10963 10964 10964 10965 10965 10966 10967 10969 10971 10973 10974 10974 10973 10970 10969 10972 10973 10975 10979 10982 10983 10985 10988 10989 10990 10991 10993 10995 10997 10998 10999 11000 11001 11002 11003 11003 11004 11004 11004 11005 11006 11007 11008 11008 11008 11008 11009 11009 11009 11009 11008
10916 10921 10927 10931 10931 10935 10942 10946 10948 10950 10952 10953 10955 10957 10959 10960 10961 10962 10963 10965 10966 10968 10969 10970 10969 10967 10965 10966 10968 10971 10975 10978 10980 10982 10984 10986 10987 10987 10989 10991 10993 10994 10994 10995 10997 10998 10998 10999 11000 11001 11002 11002 11003 11004 11005 11006 11006 11006 11006 11007 11006 11006 11006
10909 10912 10917 10920 10922 10927 10933 10935 10936 10939 10943 10946 10948 10950 10953 10955 10955 10956 10959 10961 10962 10962 10963 10964 10963 10962 10962 10962 10963 10965 10968 10972 10974 10976 10979 10981 10983 10984 10985 10986 10988 10989 10990 10991 10993 10994 10995 10995 10996 10997 10998 10999 11000 11000 11001 11002 11003 11003 11003 11004 11004 11003 11003
10900 10903 10906 10910 10915 10921 10925 10925 10927 10932 10937 10940 10942 10943 10945 10947 10949 10951 10954 10956 10956 10955 10955 10956 10957 10956 10956 10957 10958 10959 10963 10966 10968 10971 10974 10976 10978 10980 10981 10980 10980 10982 10984 10986 10988 10991 10992 10992 10993 10993 10993 10994 10995 10996 10997 10998 10999 11000 11000 11001 11000 10999 10999
10892 10894 10897 10902 10909 10913 10914 10913 10916 10923 10928 10931 10933 10936 10938 10940 10942 10945 10946 10945 10945 10945 10946 10948 10950 10950 10949 10949 10952 10954 10958 10961 10963 10965 10967 10967 10969 10973 10975 10972 10970 10973 10977 10981 10984 10987 10989 10990 10990 10989 10987 10988 10990 10991 10993 10994 10995 10996 10996 10997 10996 10996 10996
10881 10883 10887 10894 10901 10904 10903 10903 10906 10913 10918 10920 10923 10927 10930 10933 10935 10935 10935 10934 10935 10936 10936 10938 10941 10941 10939 10940 10944 10948 10951 10955 10958 10960 10958 10956 10957 10963 10965 10965 10964 10966 10970 10975 10979 10983 10986 10988 10988 10984 10980 10981 10984 10986 10987 10989 10990 10991 10992 10992 10992 10992 10991
10869 10873 10878 10884 10889 10893 10895 10896 10899 10902 10906 10909 10913 10917 10920 10921 10920 10921 10922 10923 10923 10923 10924 10926 10929 10929 10928 10932 10937 10941 10945 10949 10951 10952 10948 10945 10947 10952 10955 10957 10959 10960 10964 10969 10974 10980 10985 10986 10984 10979 10974 10975 10980 10981 10981 10983 10983 10984 10986 10987 10988 10987 10987
10859 10864 10869 10872 10877 10883 10885 10886 10889 10891 10894 10899 10904 10907 10908 10906 10905 10907 10911 10910 10908 10911 10916 10918 10917 10917 10921 10926 10930 10934 10938 10939 10939 10939 10938 10938 10941 10944 10947 10950 10952 10954 10958 10963 10970 10977 10982 10980 10975 10970 10969 10972 10977 10978 10977 10977 10978 10978 10979 10981 10983 10982 10981
10846 10851 10856 10860 10865 10870 10872 10873 10877 10880 10883 10889 10894 10896 10897 10895 10896 10899 10900 10899 10900 10905 10910 10909 10907 10909 10915 10919 10921 10925 10928 10928 10928 10930 10933 10934 10936 10937 10939 10943 10946 10948 10951 10956 10962 10970 10974 10971 10966 10964 10964 10967 10971 10973 10972 10973 10974 10973 10973 10975 10978 10977 10976
10835 10840 10845 10849 10854 10858 10861 10864 10867 10869 10873 10878 10881 10882 10883 10885 10888 10891 10891 10890 10893 10898 10901 10901 10901 10903 10908 10911 10913 10916 10918 10918 10920 10924 10928 10930 10931 10931 10932 10934 10938 10941 10944 10947 10952 10958 10962 10961 10960 10960 10960 10961 10965 10967 10966 10966 10968 10968 10968 10970 10972 10972 10971
10828 10832 10836 10840 10843 10848 10851 10855 10859 10861 10863 10865 10866 10865 10868 10874 10880 10882 10881 10881 10884 10888 10892 10894 10895 10896 10900 10903 10905 10907 10909 10910 10913 10917 10921 10923 10925 10925 10926 10927 10929 10932 10935 10938 10942 10946 10949 10951 10953 10955 10955 10956 10959 10960 10959 10959 10960 10961 10962 10963 10964 10965 10965
10822 10825 10828 10831 10834 10838 10841 10844 10849 10852 10853 10855 10855 10855 10859 10866 10871 10872 10872 10873 10875 10878 10882 10886 10887 10888 10890 10893 10895 10897 10899 10902 10905 10908 10912 10915 10917 10918 10919 10920 10922 10924 10926 10929 10932 10935 10937 10940 10944 10947 10949 10950 10951 10952 10951 10951 10952 10953 10954 10955 10956 10958 10959
10815 10816 10819 10823 10826 10829 10832 10835 10839 10841 10843 10844 10846 10847 10851 10857 10861 10862 10864 10865 10867 10869 10873 10875 10877 10879 10880 10882 10884 10887 10890 10893 10896 10899 10903 10905 10908 10910 10911 10912 10914 10916 10918 10920 10923 10925 10928 10930 10933 10937 10940 10941 10942 10943 10943 10944 10944 10945 10947 10948 10949 10951 10952
10807 10808 10811 10814 10817 10821 10824 10826 10829 10832 10833 10834 10836 10837 10841 10845 10849 10852 10853 10855 10857 10860 10863 10865 10868 10869 10871 10872 10874 10876 10880 10883 10886 10890 10893 10896 10898 10901 10903 10904 10906 10907 10909 10912 10914 10917 10920 10922 10924 10926 10928 10931 10933 10934 10935 10936 10937 10937 10939 10941 10942 10943 10944
10798 10799 10801 10804 10808 10811 10814 10817 10819 10821 10824 10825 10827 10829 10831 10834 10838 10841 10844 10846 10848 10851 10853 10856 10858 10859 10861 10862 10864 10867 10870 10873 10877 10880 10884 10886 10888 10890 10893 10895 10898 10899 10901 10903 10905 10908 10910 10913 10916 10918 10919 10921 10922 10924 10925 10927 10928 10929 10931 10933 10934 10934 10935
10789 10790 10792 10795 10799 10802 10804 10806 10808 10810 10813 10815 10817 10819 10822 10825 10828 10831 10834 10837 10839 10841 10843 10846 10848 10850 10852 10853 10854 10857 10860 10864 10867 10870 10873 10875 10878 10880 10882 10885 10888 10891 10892 10894 10897 10899 10901 10903 10906 10909 10911 10913 10913 10914 10915 10916 10918 10919 10921 10924 10926 10926 10927
10777 10779 10782 10785 10789 10792 10793 10795 10797 10799 10801 10804 10806 10809 10811 10814 10817 10821 10824 10826 10828 10830 10832 10835 10838 10841 10843 10843 10844 10846 10850 10854 10857 10859 10863 10865 10867 10869 10872 10875 10878 10880 10883 10884 10886 10889 10891 10894 10896 10898 10900 10903 10905 10906 10907 10907 10907 10908 10910 10913 10916 10918 10918
10766 10768 10770 10774 10779 10782 10783 10784 10786 10788 10790 10793 10795 10798 10800 10803 10806 10810 10813 10815 10817 10819 10821 10824 10828 10831 10832 10833 10833 10836 10839 10842 10845 10848 10852 10855 10856 10857 10860 10863 10866 10869 10871 10873 10875 10877 10880 10882 10885 10887 10889 10892 10894 10896 10898 10899 10899 10899 10900 10901 10904 10907 10909
10755 10757 10760 10763 10768 10771 10773 10774 10776 10778 10780 10782 10784 10787 10789 10792 10795 10798 10801 10804 10806 10808 10811 10814 10817 10820 10822 10822 10823 10824 10827 10830 10833 10836 10840 10843 10845 10846 10847 10850 10855 10858 10860 10861 10863 10865 10867 10869 10872 10875 10877 10880 10882 10885 10886 10889 10891 10892 10892 10893 10894 10896 10898
10744 10746 10749 10752 10756 10760 10763 10764 10766 10768 10770 10772 10774 10776 10778 10780 10783 10786 10789 10791 10793 10796 10798 10802 10805 10808 10810 10811 10812 10813 10815 10817 10821 10824 10827 10830 10832 10834 10836 10838 10842 10845 10848 10849 10851 10852 10854 10857 10859 10861 10864 10867 10869 10872 10874 10876 10879 10881 10882 10884 10885 10886 10888